Date,TemperatureHighF,TemperatureAvgF,TemperatureLowF,DewpointHighF,DewpointAvgF,DewpointLowF,HumidityHigh,HumidityAvg,HumidityLow,PressureMaxIn,PressureMinIn,WindSpeedMaxMPH,WindSpeedAvgMPH,GustSpeedMaxMPH,PrecipitationSumIn
2013-2-1,66.8,50.2,39.2,40.8,37.9,33.8,91,66,32,30.45,30.33,9,0,0,0.00
2013-2-2,71.0,54.3,39.8,50.8,44.7,38.2,95,73,41,30.37,30.20,10,1,0,0.00
2013-2-3,70.3,55.1,43.4,52.1,38.7,22.6,97,62,19,30.33,30.14,11,1,0,0.00
2013-2-4,60.7,51.9,41.5,54.3,46.4,37.1,97,82,68,30.15,29.98,5,0,0,0.08
2013-2-5,72.4,61.0,54.8,61.5,57.3,53.6,98,89,65,30.06,29.97,6,0,0,0.00
2013-2-6,64.3,60.0,53.3,60.5,57.7,53.0,99,92,82,30.15,29.99,9,2,0,0.25
2013-2-7,70.7,59.8,53.1,60.1,57.0,52.5,99,91,68,30.00,29.83,16,1,16,1.32
2013-2-8,70.4,58.7,52.4,60.1,54.4,49.1,99,87,63,30.21,30.00,12,1,13,0.01
2013-2-9,63.8,56.7,48.9,58.9,51.9,44.6,93,84,72,30.26,30.06,10,2,12,0.01
2013-2-10,75.6,69.3,60.3,71.0,66.4,58.8,96,91,84,30.07,29.90,17,3,20,0.07
2013-2-11,70.6,58.2,54.2,68.6,56.7,52.2,98,95,85,30.18,29.99,13,2,20,1.57
2013-2-12,67.6,58.4,54.0,67.3,57.5,51.4,99,97,91,30.10,29.77,10,1,12,0.49
2013-2-13,57.7,50.0,38.5,51.4,44.6,37.1,96,82,57,30.12,29.91,10,1,0,0.01
2013-2-14,62.1,47.1,34.8,42.5,38.4,34.3,99,76,38,30.20,30.09,6,0,0,0.00
2013-2-15,65.8,51.4,35.5,44.9,38.6,34.7,99,66,35,30.23,30.12,9,1,0,0.00
2013-2-16,53.1,45.6,34.3,39.8,27.7,16.9,79,52,26,30.37,30.23,18,2,18,0.00
2013-2-17,64.5,48.1,32.1,40.5,33.0,26.0,92,59,34,30.39,30.24,12,1,12,0.00
2013-2-18,65.2,56.2,43.3,61.3,50.6,38.3,92,82,65,30.26,29.98,16,2,18,0.48
2013-2-19,65.7,57.2,46.1,61.6,41.4,23.2,96,61,24,30.29,29.98,15,2,16,1.72
2013-2-20,60.4,50.1,39.8,41.3,31.6,25.8,68,51,29,30.30,30.06,14,2,15,0.00
2013-2-21,71.5,61.4,50.4,68.7,55.1,38.8,97,80,64,30.06,29.78,14,3,17,0.23
2013-2-22,70.5,61.9,53.6,68.5,54.1,47.0,95,77,51,30.03,29.89,8,1,0,0.49
2013-2-23,62.5,55.0,50.4,53.5,51.3,47.6,97,88,70,30.01,29.91,9,1,0,0.00
2013-2-24,71.5,57.1,44.1,58.5,51.3,42.7,97,82,54,30.02,29.77,10,2,0,0.97
2013-2-25,65.5,61.6,56.2,64.7,58.5,38.9,98,91,48,29.80,29.46,16,2,20,1.35
2013-2-26,59.6,51.5,45.4,43.7,37.8,32.9,86,60,46,29.97,29.62,16,3,19,0.00
2013-2-27,71.0,56.5,42.8,50.1,41.8,36.6,96,63,29,30.10,29.96,12,1,14,0.00
2013-2-28,53.6,47.4,41.8,37.6,32.5,26.6,78,57,40,30.21,30.10,13,1,14,0.00